EW1449 Weather Reports


time (UTC)temp
C
wind
direction
speed
KPH
gust
KPH
rain 1hr
cm
rain 24hr
cm
rain mn
cm
humidity
%
barometer
mb
20260505140358 15 216 8.0 14.5 0.00 0.00 0.00 84 1017.1
20260505124806 14 199 0.0 3.2 0.00 0.00 0.00 89 1016.9
20260505124303 14 220 3.2 6.4 0.00 0.00 0.00 90 1017.0
20260505123758 13 240 6.4 12.9 0.00 0.00 0.00 90 1016.8
20260505123255 14 226 6.4 11.3 0.00 0.00 0.00 89 1016.9
20260505122751 14 206 3.2 11.3 0.00 0.00 0.00 89 1016.9
20260505122249 14 193 3.2 12.9 0.00 0.00 0.00 90 1017.2
20260505121745 13 213 6.4 16.1 0.00 0.00 0.00 91 1016.9
20260505121242 13 196 4.8 6.4 0.00 0.00 0.00 92 1017.0
20260505120738 13 197 3.2 4.8 0.00 0.00 0.00 92 1017.2
20260505120235 13 235 3.2 9.7 0.00 0.00 0.00 92 1017.0
20260505115733 13 237 4.8 6.4 0.00 0.00 0.00 91 1016.9
20260505115231 13 232 3.2 11.3 0.00 0.00 0.00 91 1016.9
20260505114729 13 254 8.0 9.7 0.00 0.00 0.00 91 1016.9
20260505114224 13 225 3.2 9.7 0.00 0.00 0.00 91 1016.7
20260505113721 13 239 4.8 9.7 0.00 0.00 0.00 91 1017.0
20260505113217 13 208 14.5 17.7 0.00 0.00 0.00 92 1017.1
20260505112713 13 231 3.2 6.4 0.00 0.00 0.00 93 1017.2
20260505112211 13 197 8.0 9.7 0.00 0.00 0.00 93 1016.9
20260505111706 13 225 4.8 6.4 0.00 0.00 0.00 93 1017.0
20260505111202 13 232 6.4 11.3 0.00 0.00 0.00 93 1017.0
20260505110658 13 203 4.8 6.4 0.00 0.00 0.00 93 1017.0
20260505110156 13 238 3.2 11.3 0.00 0.00 0.00 94 1016.9
20260505102131 12 208 8.0 12.9 0.00 0.00 0.00 96 1016.2
20260505101630 12 158 8.0 12.9 0.00 0.00 0.00 97 1016.3
20260505101126 12 212 3.2 11.3 0.00 0.00 0.00 97 1016.2
20260505100622 11 195 4.8 6.4 0.00 0.00 0.00 97 1016.0
20260505100119 11 205 4.8 6.4 0.00 0.00 0.00 97 1015.9
20260505095615 11 207 6.4 9.7 0.00 0.00 0.00 97 1016.0
20260505095112 11 187 3.2 4.8 0.00 0.00 0.00 97 1016.0
20260505094608 11 200 0.0 3.2 0.00 0.00 0.00 97 1016.0
20260505094104 11 233 3.2 6.4 0.00 0.00 0.00 97 1016.0
20260505093601 11 211 3.2 4.8 0.00 0.00 0.00 96 1016.1
20260505093058 12 182 3.2 11.3 0.00 0.00 0.00 96 1015.9
20260505092556 12 254 3.2 4.8 0.00 0.00 0.00 96 1015.9
20260505092054 12 177 3.2 6.4 0.00 0.00 0.00 96 1016.0
20260505091550 12 239 3.2 4.8 0.00 0.00 0.00 96 1015.8
20260505091049 12 208 1.6 4.8 0.00 0.00 0.00 96 1015.9
20260505090547 12 212 4.8 6.4 0.00 0.00 0.00 96 1015.9
20260505090044 12 199 4.8 6.4 0.00 0.00 0.00 95 1015.9
20260505085542 12 196 3.2 4.8 0.00 0.00 0.00 95 1016.0
20260505085040 12 240 4.8 6.4 0.00 0.00 0.00 95 1015.9
20260505084537 12 241 3.2 9.7 0.00 0.00 0.00 95 1015.9
20260505084036 12 204 6.4 9.7 0.00 0.00 0.00 95 1015.9
20260505083532 12 239 6.4 9.7 0.00 0.00 0.00 95 1015.9
20260505083029 12 237 1.6 4.8 0.00 0.00 0.00 95 1016.1
20260505082525 12 220 8.0 11.3 0.00 0.00 0.00 95 1016.0
20260505082021 12 213 3.2 11.3 0.00 0.00 0.00 94 1016.2
20260505081518 12 229 9.7 12.9 0.00 0.00 0.00 94 1016.0
20260505081015 12 233 1.6 9.7 0.00 0.00 0.00 94 1016.0
20260505080511 12 184 4.8 6.4 0.00 0.00 0.00 94 1016.1
20260505080008 12 176 4.8 11.3 0.00 0.00 0.00 94 1016.1
20260505075504 12 239 4.8 4.8 0.00 0.00 0.00 94 1016.0
20260505075001 12 197 1.6 6.4 0.00 0.00 0.00 93 1015.9
20260505074458 12 196 1.6 6.4 0.00 0.00 0.00 93 1015.8
20260505073955 12 261 6.4 14.5 0.00 0.00 0.00 93 1016.0
20260505073453 12 241 4.8 6.4 0.00 0.00 0.00 93 1016.0
20260505072950 12 255 4.8 9.7 0.00 0.00 0.00 93 1016.1
20260505072446 12 221 3.2 4.8 0.00 0.00 0.00 92 1016.0
20260505071942 12 193 4.8 9.7 0.00 0.00 0.00 92 1016.2
20260505071438 12 222 6.4 9.7 0.00 0.00 0.00 92 1016.1
20260505070937 12 214 1.6 3.2 0.00 0.00 0.00 92 1016.0
20260505070433 12 241 1.6 3.2 0.00 0.00 0.00 92 1015.9
20260505065929 12 208 4.8 9.7 0.00 0.00 0.00 92 1016.0
20260505065426 12 208 9.7 11.3 0.00 0.00 0.00 92 1015.8
20260505064922 12 178 1.6 9.7 0.00 0.00 0.00 92 1016.0
20260505064419 12 210 4.8 6.4 0.00 0.00 0.00 92 1016.1
20260505063918 12 205 1.6 6.4 0.00 0.00 0.00 92 1015.9
20260505063414 12 150 8.0 11.3 0.00 0.00 0.00 92 1015.9
20260505062910 12 225 6.4 9.7 0.00 0.00 0.00 92 1016.1
20260505062408 12 214 6.4 11.3 0.00 0.00 0.00 92 1016.2
20260505061904 12 191 4.8 4.8 0.00 0.00 0.00 92 1016.2
20260505061403 12 197 6.4 9.7 0.00 0.00 0.00 92 1016.2
20260505060900 12 206 4.8 4.8 0.00 0.00 0.00 92 1016.4
20260505060356 12 199 3.2 6.4 0.00 0.00 0.00 92 1016.2
20260505055852 12 207 8.0 11.3 0.00 0.00 0.00 92 1016.3
20260505055349 12 231 3.2 9.7 0.00 0.00 0.00 91 1016.4
20260505054846 12 202 3.2 9.7 0.00 0.00 0.00 91 1016.3
20260505054343 12 197 6.4 11.3 0.00 0.00 0.00 91 1016.4
20260505053841 12 217 4.8 12.9 0.00 0.00 0.00 91 1016.3
20260505053338 12 277 3.2 9.7 0.00 0.00 0.00 91 1016.4
20260505052834 12 195 3.2 11.3 0.00 0.00 0.00 92 1016.5
20260505052331 12 220 3.2 12.9 0.00 0.00 0.00 92 1016.4
20260505051829 12 216 1.6 4.8 0.00 0.00 0.00 92 1016.3
20260505051326 12 215 3.2 9.7 0.00 0.00 0.00 92 1016.5
20260505050824 12 205 3.2 9.7 0.00 0.00 0.00 92 1016.5
20260505050323 12 183 3.2 6.4 0.00 0.00 0.00 92 1016.5
20260505041746 12 224 4.8 14.5 0.00 0.00 0.00 89 1016.8
20260505041243 12 244 1.6 3.2 0.00 0.00 0.00 89 1016.7
20260505040741 12 218 4.8 11.3 0.00 0.00 0.00 89 1016.7
20260505040238 12 205 3.2 6.4 0.00 0.00 0.00 90 1016.7
20260505035735 12 191 3.2 9.7 0.00 0.00 0.00 89 1016.8
20260505035230 12 215 4.8 6.4 0.00 0.00 0.00 89 1016.8
20260505034728 12 210 1.6 4.8 0.00 0.00 0.00 89 1016.8
20260505034225 12 241 3.2 6.4 0.00 0.00 0.00 88 1016.8
20260505033721 13 241 4.8 6.4 0.00 0.00 0.00 87 1016.7
20260505033219 13 231 9.7 12.9 0.00 0.00 0.00 87 1016.8
20260505032717 13 246 3.2 9.7 0.00 0.00 0.00 87 1016.8
20260505032212 13 239 1.6 6.4 0.00 0.00 0.00 87 1016.6
20260505031710 13 223 3.2 4.8 0.00 0.00 0.00 86 1016.6
20260505031206 13 213 8.0 11.3 0.00 0.00 0.00 86 1016.8
20260505030703 13 218 6.4 9.7 0.00 0.00 0.00 86 1016.8
20260505030159 13 246 3.2 6.4 0.00 0.00 0.00 86 1016.8
20260505025655 13 232 4.8 11.3 0.00 0.00 0.00 86 1016.8
20260505025154 12 203 4.8 12.9 0.00 0.00 0.00 86 1016.8
20260505024651 12 238 3.2 11.3 0.00 0.00 0.00 87 1016.8
20260505024148 13 204 6.4 11.3 0.00 0.00 0.00 86 1016.8
20260505023646 13 231 3.2 16.1 0.00 0.00 0.00 86 1016.7
20260505023143 13 214 8.0 11.3 0.00 0.00 0.00 85 1016.9
20260505022640 13 206 8.0 12.9 0.00 0.00 0.00 85 1016.8
20260505022137 13 220 8.0 14.5 0.00 0.00 0.00 85 1016.8
20260505021634 13 205 6.4 12.9 0.00 0.00 0.00 84 1016.9
20260505021131 13 242 4.8 6.4 0.00 0.00 0.00 84 1016.9
20260505020626 13 264 6.4 12.9 0.00 0.00 0.00 84 1016.9
20260505020122 12 243 3.2 6.4 0.00 0.00 0.00 86 1017.0
20260505015620 12 241 4.8 9.7 0.00 0.00 0.00 86 1017.0
20260505015116 12 249 3.2 6.4 0.00 0.00 0.00 86 1016.7
20260505014613 12 227 1.6 11.3 0.00 0.00 0.00 86 1016.8
20260505014110 12 236 6.4 12.9 0.00 0.00 0.00 87 1016.7
20260505013607 12 265 3.2 16.1 0.00 0.00 0.00 87 1016.8
20260505013104 12 230 6.4 12.9 0.00 0.00 0.00 87 1016.8
20260505012602 12 222 9.7 14.5 0.00 0.00 0.00 87 1016.8
20260505012058 12 221 8.0 11.3 0.00 0.00 0.00 87 1016.6
20260505011554 12 228 6.4 12.9 0.00 0.00 0.00 87 1016.4
20260505011052 12 231 1.6 6.4 0.00 0.00 0.00 87 1016.6
20260505010547 12 253 9.7 12.9 0.00 0.00 0.00 87 1016.3
20260505010044 12 238 6.4 17.7 0.00 0.00 0.00 86 1016.5
20260505005540 12 210 4.8 12.9 0.00 0.00 0.00 86 1016.4
20260505005038 12 134 9.7 17.7 0.00 0.00 0.00 85 1016.2
20260505004534 12 222 8.0 12.9 0.00 0.00 0.00 85 1016.2
20260505004026 12 226 14.5 22.5 0.00 0.00 0.00 85 1016.1
20260505003523 12 220 4.8 11.3 0.00 0.00 0.00 85 1016.1
20260505003020 12 197 8.0 16.1 0.00 0.00 0.00 84 1016.1
20260505002515 12 178 9.7 14.5 0.00 0.00 0.00 84 1015.7
20260505002014 12 204 1.6 11.3 0.00 0.00 0.00 83 1015.9
20260505001511 12 205 14.5 16.1 0.00 0.00 0.00 83 1015.7
20260505001008 12 239 6.4 6.4 0.00 0.00 0.00 84 1015.7
20260505000505 12 241 6.4 14.5 0.00 0.00 0.00 84 1015.8
20260505000002 12 197 16.1 20.9 0.00 0.00 0.00 85 1015.7
20260504235459 12 166 4.8 12.9 0.00 0.00 0.00 85 1015.4
20260504234956 12 244 8.0 12.9 0.00 0.00 0.00 86 1015.4
20260504234453 12 167 4.8 17.7 0.00 0.00 0.00 86 1015.5
20260504233949 12 238 9.7 14.5 0.00 0.00 0.00 85 1015.4
20260504233445 12 188 8.0 12.9 0.00 0.00 0.00 86 1015.3
20260504232942 12 234 3.2 9.7 0.00 0.00 0.00 85 1015.4
20260504232439 12 176 6.4 24.1 0.00 0.00 0.00 86 1015.3
20260504231937 12 206 3.2 16.1 0.00 0.00 0.00 86 1015.5
20260504231433 12 159 6.4 22.5 0.00 0.00 0.00 85 1015.5
20260504230929 12 199 14.5 24.1 0.00 0.00 0.00 84 1015.6
20260504230426 12 231 14.5 22.5 0.00 0.00 0.00 84 1015.7
20260504225925 12 173 6.4 9.7 0.00 0.00 0.00 84 1015.3
20260504225421 13 216 4.8 11.3 0.00 0.00 0.00 84 1015.5
20260504224919 13 203 1.6 9.7 0.00 0.00 0.00 83 1015.4
20260504224415 13 248 8.0 9.7 0.00 0.00 0.00 83 1015.4
20260504223913 13 119 3.2 16.1 0.00 0.00 0.00 83 1015.4
20260504223408 13 229 1.6 11.3 0.00 0.00 0.00 82 1015.5
20260504222904 13 233 12.9 17.7 0.00 0.00 0.00 81 1015.6
20260504222401 13 259 9.7 16.1 0.00 0.00 0.00 82 1015.6
20260504221900 13 206 6.4 16.1 0.00 0.00 0.00 82 1015.5
20260504221356 13 194 6.4 14.5 0.00 0.00 0.00 81 1015.5
20260504220853 13 212 6.4 20.9 0.00 0.00 0.00 81 1015.7
20260504220350 13 243 12.9 17.7 0.00 0.00 0.00 79 1015.6
20260504215847 13 182 12.9 22.5 0.00 0.00 0.00 79 1015.7
20260504215343 13 242 6.4 11.3 0.00 0.00 0.00 79 1015.5
20260504214839 13 197 8.0 16.1 0.00 0.00 0.00 80 1015.7
20260504214337 13 215 6.4 17.7 0.00 0.00 0.00 79 1015.8
20260504213833 13 237 4.8 11.3 0.00 0.00 0.00 78 1015.7
20260504213329 13 233 17.7 29.0 0.00 0.00 0.00 78 1016.0
20260504212827 13 237 4.8 20.9 0.00 0.00 0.00 78 1015.8
20260504212323 13 131 9.7 16.1 0.00 0.00 0.00 77 1015.7
20260504211821 13 223 17.7 24.1 0.00 0.00 0.00 76 1015.8
20260504211316 13 226 8.0 11.3 0.00 0.00 0.00 77 1015.7
20260504210814 14 253 12.9 22.5 0.00 0.00 0.00 75 1015.7
20260504210311 14 232 9.7 24.1 0.00 0.00 0.00 76 1015.6
20260504205808 14 259 12.9 27.4 0.00 0.00 0.00 75 1015.6
20260504205306 14 145 9.7 24.1 0.00 0.00 0.00 75 1015.7
20260504204804 15 228 14.5 20.9 0.00 0.00 0.00 74 1015.7
20260504204302 14 226 9.7 17.7 0.00 0.00 0.00 74 1015.8
20260504203801 15 212 16.1 20.9 0.00 0.00 0.00 73 1015.9
20260504203258 14 200 6.4 22.5 0.00 0.00 0.00 74 1015.7
20260504202753 15 224 16.1 24.1 0.00 0.00 0.00 73 1015.7
20260504202250 15 232 19.3 22.5 0.00 0.00 0.00 72 1015.8
20260504201747 15 231 16.1 17.7 0.00 0.00 0.00 72 1015.7
20260504201244 15 172 3.2 14.5 0.00 0.00 0.00 71 1015.8
20260504200742 15 242 12.9 20.9 0.00 0.00 0.00 71 1016.0
20260504200238 15 248 12.9 29.0 0.00 0.00 0.00 70 1015.8
20260504195735 16 246 9.7 17.7 0.00 0.00 0.00 69 1016.0
20260504195230 16 237 20.9 27.4 0.00 0.00 0.00 67 1016.0
20260504194728 16 226 9.7 24.1 0.00 0.00 0.00 67 1016.1
20260504194224 16 260 4.8 17.7 0.00 0.00 0.00 68 1016.1
20260504193720 16 143 9.7 16.1 0.00 0.00 0.00 67 1016.0
20260504193218 16 239 8.0 22.5 0.00 0.00 0.00 67 1016.1
20260504192716 16 214 12.9 22.5 0.00 0.00 0.00 66 1016.3
20260504192214 16 219 3.2 16.1 0.00 0.00 0.00 65 1016.2
20260504191712 17 202 17.7 22.5 0.00 0.00 0.00 65 1016.1
20260504191209 16 223 3.2 16.1 0.00 0.00 0.00 67 1016.2
20260504190704 16 250 8.0 17.7 0.00 0.00 0.00 66 1016.2
20260504190201 16 203 17.7 25.7 0.00 0.00 0.00 65 1016.3
20260504185657 17 244 8.0 16.1 0.00 0.00 0.00 65 1016.3
20260504185154 17 220 6.4 16.1 0.00 0.00 0.00 66 1016.4
20260504184650 17 195 3.2 12.9 0.00 0.00 0.00 63 1016.4
20260504184145 16 201 11.3 24.1 0.00 0.00 0.00 65 1016.6
20260504183642 16 218 12.9 25.7 0.00 0.00 0.00 65 1016.6
20260504183139 16 224 6.4 11.3 0.00 0.00 0.00 66 1016.7
20260504182637 16 271 11.3 27.4 0.00 0.00 0.00 67 1016.6
20260504182134 16 221 12.9 20.9 0.00 0.00 0.00 66 1016.6
20260504181632 17 195 8.0 22.5 0.00 0.00 0.00 67 1016.7
20260504181129 16 239 8.0 25.7 0.00 0.00 0.00 66 1016.8
20260504180628 16 236 4.8 17.7 0.00 0.00 0.00 66 1017.0
20260504180126 16 206 9.7 14.5 0.00 0.00 0.00 67 1016.8
20260504175624 16 242 4.8 16.1 0.00 0.00 0.00 69 1016.7
20260504175120 16 221 6.4 17.7 0.00 0.00 0.00 68 1017.0
20260504174618 16 229 6.4 14.5 0.00 0.00 0.00 69 1017.0
20260504174114 15 253 16.1 22.5 0.00 0.00 0.00 70 1016.9
20260504173611 15 201 9.7 27.4 0.00 0.00 0.00 71 1016.9
20260504173109 16 237 11.3 22.5 0.00 0.00 0.00 70 1017.1
20260504172605 15 138 6.4 22.5 0.00 0.00 0.00 71 1017.0
20260504172102 15 209 9.7 24.1 0.00 0.00 0.00 72 1017.0
20260504171558 15 226 14.5 20.9 0.00 0.00 0.00 71 1017.4
20260504171055 15 205 8.0 22.5 0.00 0.00 0.00 72 1017.5
20260504170551 16 224 11.3 24.1 0.00 0.00 0.00 71 1017.6
20260504150930 15 227 8.0 17.7 0.00 0.00 0.00 66 1018.4
20260504150427 15 199 4.8 17.7 0.00 0.00 0.00 68 1018.6